[Iaude] MPEC G67: 2024 GS [a=2.16,e=0.55,i=3.9,H=26.5]
    mpec at cfa.harvard.edu 
    mpec at cfa.harvard.edu
       
    Fri Apr  5 09:36:40 EDT 2024
    
    
  
M.P.E.C. 2024-G67                                 Issued 2024 April 5, 13:35 UT
     The Minor Planet Electronic Circulars contain information on unusual
         minor planets, routine data on comets and natural satellites,
         and occasional editorial announcements.  They are published
    on behalf of Division F of the International Astronomical Union by the
          Minor Planet Center, Smithsonian Astrophysical Observatory,
                          Cambridge, MA 02138, U.S.A.
			  
             Prepared using the Tamkin Foundation Computer Network
                              MPC at CFA.HARVARD.EDU
            URL https://www.minorplanetcenter.net/    ISSN 1523-6714
                                    2024 GS                                     
Observations:
     K24G00S* C2024 04 01.46338713 06 43.766-07 43 30.94         21.74wXEG067F52
     K24G00S  C2024 04 01.47459413 06 48.434-07 43 12.32         21.37wXEG067F52
     K24G00S  C2024 04 01.48582913 06 53.160-07 42 53.59         21.09wXEG067F52
     K24G00S  C2024 04 01.49707813 06 57.887-07 42 35.55         21.49wXEG067F52
     K24G00S |C2024 04 02.26153013 12 35.630-07 21 00.20         21.1 GVEG067807
     K24G00S |C2024 04 02.26821013 12 38.150-07 20 50.40         21.2 GVEG067807
     K24G00S |C2024 04 02.27474013 12 40.590-07 20 41.10         21.2 GVEG067807
     K24G00S  C2024 04 02.46635613 14 01.084-07 17 42.65         21.44GVEG067F51
     K24G00S  C2024 04 02.46717213 14 01.379-07 17 41.41         21.10GVEG067F51
     K24G00S |C2024 04 04.26640013 24 42.570-06 36 55.10         21.6 GVEG067807
     K24G00S |C2024 04 04.28906013 24 48.870-06 36 27.80         21.7 GVEG067807
     K24G00S |C2024 04 04.29573713 24 50.790-06 36 20.00         21.7 GVEG067807
     K24G00S 1C2024 04 05.00582 13 28 25.32 -06 25 08.9          22.1 VXEG067033
     K24G00S 1C2024 04 05.00935 13 28 26.21 -06 25 05.3          22.1 VXEG067033
Observer details:
033 Karl Schwarzschild Observatory, Tautenburg.  Observers S. Melnikov, C.
    Hogner, F. Ludwig, M. Hartmann, B. Stecklum.  Measurer B. Stecklum.
    1.34-m f/3 Schmidt + CCD.
807 Cerro Tololo Observatory, La Serena.  Observers T. Linder, R. Holmes.
    0.61-m f/6.8 Ritchey-Chretien + CCD.
F51 Pan-STARRS 1, Haleakala.  Observers J. Herman, T. Lowe, P. Minguez, A.
    Schultz, I. Smith.  Measurers K. Chambers, T. de Boer, J. Fairlamb, H.
    Gao, M. Huber, C.-C. Lin, E. Magnier, Y. Ramanjooloo, R. Wainscoat, R.
    Weryk.  1.8-m Ritchey-Chretien + CCD.
F52 Pan-STARRS 2, Haleakala.  Observers J. Herman, T. Lowe, P. Minguez, A.
    Schultz, I. Smith.  Measurers K. Chambers, T. de Boer, J. Fairlamb, H.
    Gao, M. Huber, C.-C. Lin, E. Magnier, Y. Ramanjooloo, R. Wainscoat, R.
    Weryk.  1.8-m Ritchey-Chretien + CCD.
Orbital elements:
2024 GS                                                  Earth MOID = 0.0219 AU
Epoch 2024 Mar. 31.0 TT = JDT 2460400.5                 MPC                     
M  10.59627              (2000.0)            P               Q                  
n   0.31120623     Peri.  316.62106     -0.86067838     -0.50892336             
a   2.1566046      Node   192.81189     +0.48381914     -0.80822476             
e   0.5518194      Incl.    3.91937     +0.15859307     -0.29625961             
P   3.17           H   26.59          G   0.15           U   8                  
Residuals in seconds of arc
240401 F52  0.0   0.1-    240402 807  0.4+  0.1+    240404 807  0.2-  0.2+
240401 F52  0.4-  0.0     240402 807  0.3+  0.5-    240404 807  0.7+  0.0
240401 F52  0.2-  0.2+    240402 F51  0.5-  0.0     240405 033  0.3-  0.2-
240401 F52  0.0   0.4-    240402 F51  0.5-  0.0     240405 033  0.6-  0.5-
240402 807  0.2+  0.3+    240404 807  0.1-  0.1-
Ephemeris:
2024 GS                  a,e,i = 2.16, 0.55, 4                   q = 0.9665
Date    TT    R. A. (2000) Decl.     Delta      r    Elong.  Phase     V
2024 03 06    04 08 13.2 -03 29 02   0.08596 0.9735    75.1   100.0    24.8
...
2024 03 21    08 39 30.9 -14 32 32   0.03039 1.0151   128.0    50.7    20.9
...
2024 03 29    12 30 26.3 -09 39 50   0.05225 1.0503   173.7     6.0    20.8
...
2024 04 04    13 23 18.8 -06 42 56   0.08217 1.0816   172.4     7.0    21.9
2024 04 05    13 28 23.8 -06 23 52   0.08755 1.0872   172.1     7.3    22.0
2024 04 06    13 32 51.5 -06 06 49   0.09302 1.0929   171.9     7.4    22.2
...
2024 04 12    13 50 51.2 -04 55 55   0.1274  1.1287   172.0     7.1    22.9
...
2024 04 20    14 02 43.4 -04 12 56   0.1775  1.1808   172.2     6.6    23.7
...
2024 05 05    14 12 36.4 -04 11 43   0.2864  1.2874   165.0    11.7    25.1
A. U. Tomatic                (C) Copyright 2024 MPC           M.P.E.C. 2024-G67
    
    
More information about the Iaude
mailing list